Regional Weather Roundup
Issued by NWS San Angelo, TX

Home | Current Version | Previous Version | Text Only | Print | Product List | Glossary On
Versions: 1 2 3 4 5 6 7 8 9 10 11 12 13 14 15 16 17 18 19 20 21 22 23 24 25 26 27 28 29 30 31 32 33 34 35 36 37 38 39 40 41 42 43 44 45 46 47 48 49 50
000
ASUS44 KSJT 170610
RWRSJT
WEST CENTRAL TEXAS REGIONAL WEATHER ROUNDUP
NATIONAL WEATHER SERVICE SAN ANGELO TX
100 AM CDT THU AUG 17 2017

NOTE: "FAIR" INDICATES FEW OR NO CLOUDS BELOW 12,000 FEET WITH NO
SIGNIFICANT WEATHER AND/OR OBSTRUCTIONS TO VISIBILITY.

TXZ049-054-064>066-071>073-076>078-098-099-113-114-127-128-139-140-
154-155-168>170-170700
...LOCATIONS ACROSS WEST CENTRAL TEXAS...

CITY           SKY/WX    TMP DP  RH WIND       PRES   REMARKS
SAN ANGELO     CLOUDY    74  64  71 N15G22    30.04R
ABILENE        CLOUDY    77  66  68 S10       29.95F
DYESS AFB      MOCLDY    77  65  65 S17       29.92F
JUNCTION       PTCLDY    83  73  72 S16G26    29.98R
SWEETWATER     CLOUDY    75  61  62 SW15      30.01R
BROWNWOOD      CLOUDY    81  68  65 S6        29.96S
COLEMAN        CLOUDY    80  67  64 S8        29.97F
SONORA         CLOUDY    77  70  78 CALM      30.04R
OZONA          FAIR      77  68  73 E3        30.04R
BRADY          NOT AVBL
$$

TEXAS PANHANDLE/OKLAHOMA PANHANDLE

CITY           SKY/WX    TMP DP  RH WIND       PRES   REMARKS
AMARILLO       CLEAR     69  58  67 E6        30.09R
BORGER         CLEAR     72  61  68 E5        30.05S
CANADIAN       CLEAR     67  64  90 SW3       30.01F
DALHART        CLEAR     66  60  81 E5        30.13R
DUMAS          CLEAR     68  56  66 E5        30.10R
GUYMON         NOT AVBL
HEREFORD       CLEAR     66  61  85 CALM      30.11R
PAMPA          CLEAR     70  60  70 E6        30.07F
PERRYTON       CLEAR     69  61  76 CALM      30.04S
$$

SOUTHERN PANHANDLE/SOUTH PLAINS/ROLLING PLAINS

CITY           SKY/WX    TMP DP  RH WIND       PRES   REMARKS
LUBBOCK        CLEAR     71  64  78 NE3         N/A
SNYDER         CLOUDY    70  66  87 SW7       30.02R
CHILDRESS      CLEAR     77  67  71 N8        29.96F
SEMINOLE       CLOUDY    71  63  76 CALM      30.06S
$$

PERMIAN BASIN

CITY           SKY/WX    TMP DP  RH WIND       PRES   REMARKS
MIDLAND        PTCLDY    79  66  64 SE12      30.03S
ODESSA         CLEAR     77  66  68 SE13      30.04S
WINK           CLEAR     80  65  59 SE10      29.98R
$$

FAR WEST/SOUTHWEST MOUNTAINS/TRANS PECOS

CITY           SKY/WX    TMP DP  RH WIND       PRES   REMARKS
ALPINE         CLOUDY    72  54  51 SW7       30.18R
DRYDEN           N/A     78  71  79 N3        29.97R
EL PASO        CLEAR     81  54  39 N3        30.06R
FORT STOCKTON  PTCLDY    78  59  51 S9        30.01R
GUADALUPE PASS CLEAR     79  43  27 CALM      30.20S
MARFA          CLOUDY    64  60  87 N5        30.18R
PECOS          CLEAR     78  60  53 E7        29.96S
$$

DALLAS/FORT WORTH METROPLEX

CITY           SKY/WX    TMP DP  RH WIND       PRES   REMARKS
DFW AIRPORT    MOCLDY    88  72  58 S15       29.89S
FTW MEACHAM    CLOUDY    87  72  60 S14G22    29.90S
DAL-EXECUTIVE  CLOUDY    87  72  60 S10G17    29.91R
GRAND PRAIRIE  PTCLDY    87  70  57 S10G17    29.92F
ADDISON        MOCLDY    87  71  59 S13G18    29.93S
MESQUITE       PTCLDY    83  71  68 S6        29.93R
LANCASTER      CLEAR     85  71  61 S12       29.94R
$$

NORTH CENTRAL TEXAS

CITY           SKY/WX    TMP DP  RH WIND       PRES   REMARKS
SHRMAN/DENISON CLOUDY    82  73  73 SE13      29.89F
GAINESVILLE    CLOUDY    80  72  78 SE6       29.92R
BRIDGEPORT     CLOUDY    84  68  59 S7        29.91F
DENTON         CLOUDY    84  72  67 S10       29.90S
WAXAHACHIE     CLEAR     84  72  66 S12G18    29.94S
GRANBURY       PTCLDY    85  69  58 S9        29.92S
$$

WESTERN NORTH TEXAS

CITY           SKY/WX    TMP DP  RH WIND       PRES   REMARKS
WICHITA FALLS  TSTM      77  73  87 W9        29.92R FOG
VERNON           N/A     76  65  68 CALM      29.92R THUNDER
BRECKENRIDGE   CLOUDY    85  66  52 SW8       29.91R
COMANCHE       CLOUDY    83  69  61 S12       29.96R
$$

CENTRAL AND SOUTH CENTRAL TEXAS

CITY           SKY/WX    TMP DP  RH WIND       PRES   REMARKS
AUSTIN/BERGSTM MOCLDY    83  76  79 S10       29.97R
WACO           CLOUDY    85  72  65 S17       29.93R
HILLSBORO      CLEAR     85  72  65 S14       29.94R
TEMPLE         CLOUDY    83  73  72 S17       29.96R
KILLEEN-GRAY   CLOUDY    83  72  70 S13       29.95R
FORT HOOD      CLOUDY    82  71  69 S13G22    29.93R
GEORGETOWN     CLOUDY    83  75  77 S15G21    29.98R
LAGO VISTA     FAIR      82  73  76 S9G21     30.00R
SAN MARCOS     NOT AVBL
NEW BRAUNFELS  PTCLDY    81  76  84 S13       29.98R
RANDOLPH AFB   PTCLDY    80  79  95 S10       29.99R
SAN ANTONIO    MOCLDY    82  75  79 SE13      29.99R
STINSON        CLEAR     82  75  79 SE7       29.96R
PLEASANTON     NOT AVBL
LA GRANGE      CLOUDY    83  79  89 S6        29.96R
GIDDINGS       MOCLDY    81  75  82 S10G17    29.99R
$$

EAST TEXAS

CITY           SKY/WX    TMP DP  RH WIND       PRES   REMARKS
PARIS          CLEAR     80  75  84 S8        29.93F
CLARKSVILLE    NOT AVBL
TYLER          CLOUDY    84  78  82 S12       29.96R
LONGVIEW       CLOUDY    83  78  85 S10       29.97R
PALESTINE      PTCLDY    84  75  75 S9G18     29.99R
NACOGDOCHES    NOT AVBL
$$

TEXAS HILL COUNTRY AND EDWARDS PLATEAU

CITY           SKY/WX    TMP DP  RH WIND       PRES   REMARKS
LLANO          CLOUDY    84  73  70 S8        30.00R
HORSESHOE BAY  FAIR      82  73  74 S13G18    29.98R
KERRVILLE      PTCLDY    79  74  84 S13       30.01R
FREDERICKSBRG  CLOUDY    80  70  71 S10       30.01R
ROCKSPRINGS    NOT AVBL
HONDO          PTCLDY    83  75  77 SE13      29.97R HAZE
UVALDE         DRZL/FOG  83  74  72 SE10G17   29.96R VSB 1/4
DEL RIO        PTCLDY    80  71  74 E5        29.91R
$$

SOUTHEAST TEXAS

CITY           SKY/WX    TMP DP  RH WIND       PRES   REMARKS
COLLEGE STN    MOCLDY    83  77  82 S9        29.98R
CALDWELL       NOT AVBL
CROCKETT       CLEAR     81  75  83 S5        30.02R
BRENHAM        CLEAR     83  78  86 S7        29.99R
HUNTSVILLE     MOCLDY    83  75  77 S6        29.99R
CONROE         MOCLDY    82  77  84 S9        29.99R
HOUSTON BUSH   PTCLDY    84  78  82 S7        29.98S
HOUSTON HOBBY  PTCLDY    85  78  80 S5        29.99R
PERLAND        PTCLDY    86  78  77 S8        30.00R
WHARTON        PTCLDY    81  76  86 S7        29.99R
$$

THE UPPER TEXAS COAST

CITY           SKY/WX    TMP DP  RH WIND       PRES   REMARKS
ORANGE         CLOUDY    84  80  86 S7        30.02F
PORT ARTHUR    CLOUDY    82  78  88 S8        29.99F
GALVESTON      CLOUDY    86  80  82 S20       30.00S
ANGLETON       MOCLDY    85  80  85 S14       29.99R
BAY CITY       PTCLDY    83  79  87 S10       29.98S
$$

TEXAS COASTAL BEND, RIO GRANDE PLAINS DEEP SOUTH TEXAS

CITY           SKY/WX    TMP DP  RH WIND       PRES   REMARKS
VICTORIA       MOCLDY    83  78  85 S10       29.98R
BEEVILLE       MOCLDY    83  79  87 S14       29.98R
ROCKPORT       PTCLDY    84  79  85 S9G20     29.97R
PORT ARANSAS   CLOUDY    83  79  88 S14       29.97R
PORT LAVACA    PTCLDY    82  78  85 S9        29.98R
CORPUS CHRISTI MOCLDY    84  80  88 S18G25    29.97R
KINGSVILLE NAS CLOUDY    85  81  88 S14       29.96R
COTULLA        CLEAR     86  74  67 SE12G18   29.94R
LAREDO         CLEAR     86  73  65 SE20G29   29.94R
BROWNSVILLE    PTCLDY    83  80  91 S15       29.98F
PORT ISABEL    CLEAR     84  79  85 S14       29.97F
HEBBRONVILLE   PTCLDY    82  72  72 S13       29.98F
MCALLEN        CLEAR     85  77  77 S16G26    29.97S
WESLACO        CLEAR     83  77  81 S15       29.96S
FALFURRIAS     PTCLDY    83  77  81 S7        29.96R
EDINBURG       CLEAR     86  76  73 SE13G21   29.97S
$$




USA.gov is the U.S. government's official web portal to all federal, state and local government web resources and services.